Retour au catalogue

STARLINK-37001

ActifCommunicationsVLEO
NORAD 68330·PAYLOAD·🇺🇸 United States

Lancé Mar 22, 2026 depuis Cape Canaveral Space Force Station

Loading…

Prochains Passages (prochaines 24 heures)

TLE

FraisSource: CelesTrak SupGP

Époque: Sep 15, 2026, 02:51 UTC

1 68330C 26059K   26258.11923611 -.00057356  00000+0 -16945-2 0  2581
2 68330  53.1585 186.7210 0001339  85.0446 213.2185 15.34420839    19

Suivez STARLINK-37001 en temps réel avec AllMySat

Download on the App Store